Regional Weather Roundup
Issued by NWS

Home | Current Version | Previous Version | Graphics & Text | Print | Product List | Glossary On
Versions: 1 2 3 4 5 6 7 8 9 10 11 12 13 14 15 16 17 18 19 20 21 22 23 24 25 26 27 28 29 30 31 32 33 34 35 36 37 38 39 40 41 42 43 44 45 46 47 48 49 50
000
ASUS43 KOAX 262210
RWRNE

WEATHER ROUNDUP FOR NEBRASKA
NATIONAL WEATHER SERVICE OMAHA NE
500 PM CDT TUE MAY 26 2015

NOTES: SATELLITE DATA IS BEING USED TO AUGMENT CLOUD COVER ABOVE
       12000 FEET.
       "FAIR" INDICATES FEW OR NO CLOUDS BELOW 12,000 FEET WITH NO
       SIGNIFICANT WEATHER AND/OR OBSTRUCTIONS TO VISIBILITY.

  * THESE STATIONS DO NOT REPORT WEATHER SUCH AS RAIN...SNOW OR FOG.

NEZ001>004-019>022-054>056-262300-
NEBRASKA PANHANDLE

CITY           SKY/WX    TMP DP  RH WIND       PRES   REMARKS
SCOTTSBLUFF    MOSUNNY   68  51  54 SE13      29.99R
ALLIANCE       MOSUNNY   67  48  50 E7        29.99S
CHADRON        SUNNY     70  48  45 CALM      29.96F
KIMBALL          N/A    N/A N/A N/A MISG        N/A
SIDNEY         PTSUNNY   64  51  62 SE7       30.02S
$$

NEZ057>060-069>072-079>082-262300-
SOUTHWEST NEBRASKA

CITY           SKY/WX    TMP DP  RH WIND       PRES   REMARKS
NORTH PLATTE   MOSUNNY   71  47  42 N9        29.97F
IMPERIAL       MOSUNNY   68  50  52 NE9       29.99S
LEXINGTON      MOSUNNY   68  51  54 N5        29.97S
MCCOOK         MOSUNNY   70  48  45 N9        29.97S
OGALLALA       MOSUNNY   68  48  49 CALM      29.99S
$$

NEZ005>010-023>029-035>040-094-262300-
NORTH CENTRAL NEBRASKA

CITY           SKY/WX    TMP DP  RH WIND       PRES   REMARKS
VALENTINE      MOSUNNY   72  44  36 VRB6      29.95F
AINSWORTH      MOSUNNY   72  46  39 N14       29.95S
BROKEN BOW     PTSUNNY   68  48  48 N10       29.96S
O`NEILL        LGT RAIN  64  51  64 W7        29.92S
ORD            PTSUNNY   67  51  56 NW14      29.93R
THEDFORD       PTSUNNY   70  47  45 N9        29.98S
$$

NEZ041-046>049-061>064-073>077-083>087-262300-
SOUTH CENTRAL NEBRASKA

CITY           SKY/WX    TMP DP  RH WIND       PRES   REMARKS
GRAND ISLAND   PTSUNNY   70  51  51 N14       29.92S
AURORA         MOSUNNY   71  52  50 N16       29.91S
HASTINGS       MOSUNNY   70  51  51 N16       29.92S
HEBRON         MOSUNNY   69  50  50 NW9G22    29.92R
HOLDREGE       MOSUNNY   69  45  42 N13G20    29.95S
KEARNEY *      MOSUNNY   72  46  40 N17       29.94S
YORK           MOSUNNY   68  55  64 NW13      29.90S
$$

NEZ011>018-030>034-042>045-262300-
NORTHEAST NEBRASKA

CITY           SKY/WX    TMP DP  RH WIND       PRES   REMARKS
NORFOLK        PTSUNNY   70  54  56 NW13G21   29.87S
ALBION         RAIN      60  53  78 N10       29.92R
BLAIR          CLOUDY    64  56  74 NW10      29.87R
COLUMBUS *       N/A    N/A N/A N/A MISG        N/A
FREMONT        CLOUDY    66  57  71 NW8       29.88R
TEKAMAH        PTSUNNY   65  58  78 NW9       29.85S
WAYNE          CLOUDY    68  54  59 N14       29.85S
$$

NEZ050>053-065>068-078-088>093-262300-
SOUTHEAST NEBRASKA

CITY           SKY/WX    TMP DP  RH WIND       PRES   REMARKS
LINCOLN        CLOUDY    70  55  59 NW10      29.89R
OMAHA EPPLEY   CLOUDY    65  58  78 W13       29.86R
BEATRICE       CLOUDY    71  56  59 NW13G20   29.89S
FALLS CITY     MOSUNNY   75  60  59 W16       29.85S
NEBRASKA CITY  PTSUNNY   67  60  76 NW10      29.87R
PLATTSMOUTH    PTSUNNY   69  57  65 NW16      29.86S
$$

NEZ044-045-051>053-067-262300-
OMAHA AREA

CITY           SKY/WX    TMP DP  RH WIND       PRES   REMARKS
OMAHA EPPLEY   CLOUDY    65  58  78 W13       29.86R
BLAIR          CLOUDY    64  56  74 NW10      29.87R
FREMONT        CLOUDY    66  57  71 NW8       29.88R
MILLARD        CLOUDY    66  58  76 NW8       29.86S
OFFUTT AFB     PTSUNNY   68  60  76 NW13      29.85R
PLATTSMOUTH    PTSUNNY   69  57  65 NW16      29.86S
WAHOO          MOCLDY    69  58  67 NW10      29.87S
$$


USA.gov is the U.S. government's official web portal to all federal, state and local government web resources and services.